Weather History for Raton, NM

Change the Weather History Date:

Friday, October 26, 2012

  Actual Average (KTAD) Record (KTAD)
Temperature  
Mean Temperature 35 °F 49 °F  
Max Temperature 45 °F 65 °F 84 °F (1979)
Min Temperature 25 °F 33 °F 12 °F (1997)
Degree Days  
Heating Degree Days 30 16  
Month to date heating degree days 308  
Since 1 July heating degree days 418  
Cooling Degree Days 0 0  
Month to date cooling degree days 0  
Year to date cooling degree days 716  
Moisture  
Dew Point 20 °F    
Average Humidity 60    
Maximum Humidity 81    
Minimum Humidity 28    
Precipitation  
Precipitation 0.00 in 0.03 in 0.59 in (1951)
Month to date precipitation 0.74  
Year to date precipitation 12.44  
Sea Level Pressure  
Sea Level Pressure 30.28 in    
Wind  
Wind Speed 10 mph (South)    
Max Wind Speed 18 mph    
Max Gust Speed 26 mph    
Visibility 10 miles    
Events Snow    
T = Trace of Precipitation, MM = Missing Value Source: NWS Daily Summary

Daily Weather History Graph

Daily Weather History Graph

Search for Another Location

Airport:

Trip Planner

Search our weather history database for the weather conditions in past years. The results will help you decide how hot, cold, wet, or windy it might be!

Date:

Astronomy

Oct. 26, 2012 Rise Set
Actual Time 7:16 AM MDT 6:06 PM MDT
Civil Twilight 6:49 AM MDT 6:33 PM MDT
Nautical Twilight 6:19 AM MDT 7:03 PM MDT
Astronomical Twilight 5:49 AM MDT 7:33 PM MDT
Moon 4:20 PM MDT (10/26) 4:18 AM MDT (10/26)
Length of Visible Light 11h 43m
Length of Day
10h 50m
Waxing Gibbous, 91% of the Moon is Illuminated
Oct 26
Waxing Gibbous
Oct 29
Full
Nov 6
Last Quarter
Nov 13
New
Nov 20
First Quarter

Hourly Weather History & Observations

Time (MDT) Temp. Windchill Dew Point Humidity Pressure Visibility Wind Dir Wind Speed Gust Speed Precip Events Conditions
12:53 AM 33.1 °F 23.4 °F 23.0 °F 66% 30.19 in 10.0 mi SSW 13.8 mph - N/A   Overcast
1:07 AM 33.8 °F 23.9 °F 23.0 °F 65% 30.23 in 10.0 mi SSW 15.0 mph - N/A   Overcast
1:53 AM 32.0 °F 22.1 °F 24.1 °F 73% 30.20 in 5.0 mi South 13.8 mph - 0.00 in Snow Light Snow
2:53 AM 30.9 °F 20.7 °F 24.1 °F 76% 30.19 in 10.0 mi South 13.8 mph - 0.00 in   Overcast
3:53 AM 30.9 °F 21.7 °F 25.0 °F 79% 30.20 in 8.0 mi SSW 11.5 mph - 0.00 in   Overcast
4:53 AM 30.9 °F 23.5 °F 24.1 °F 76% 30.24 in 10.0 mi SSW 8.1 mph - N/A   Overcast
5:53 AM 30.9 °F - 24.1 °F 76% 30.29 in 10.0 mi Calm Calm - N/A   Overcast
6:37 AM 26.6 °F 22.6 °F 21.2 °F 80% 30.30 in 10.0 mi South 3.5 mph - N/A   Mostly Cloudy
6:53 AM 27.0 °F 19.5 °F 21.9 °F 81% 30.31 in 10.0 mi SSW 6.9 mph - N/A   Scattered Clouds
7:32 AM 28.4 °F 24.6 °F 23.0 °F 80% 30.32 in 10.0 mi SW 3.5 mph - N/A   Mostly Cloudy
7:53 AM 28.9 °F 25.2 °F 23.0 °F 78% 30.34 in 10.0 mi WSW 3.5 mph - N/A   Overcast
8:53 AM 32.0 °F 27.5 °F 24.1 °F 73% 30.36 in 10.0 mi West 4.6 mph - N/A   Mostly Cloudy
9:01 AM 32.0 °F 27.5 °F 23.0 °F 69% 30.36 in 10.0 mi WSW 4.6 mph - N/A   Partly Cloudy
9:53 AM 35.1 °F - 24.1 °F 64% 30.36 in 10.0 mi Calm Calm - N/A   Clear
10:53 AM 39.0 °F 34.0 °F 21.9 °F 50% 30.35 in 10.0 mi East 6.9 mph - N/A   Clear
11:53 AM 44.1 °F 37.7 °F 14.0 °F 30% 30.31 in 10.0 mi ENE 12.7 mph 17.3 mph N/A   Partly Cloudy
12:53 PM 43.0 °F 34.8 °F 16.0 °F 34% 30.30 in 10.0 mi ENE 18.4 mph 26.5 mph N/A   Clear
1:53 PM 43.0 °F 36.4 °F 12.9 °F 30% 30.27 in 10.0 mi NE 12.7 mph 19.6 mph N/A   Clear
2:53 PM 42.1 °F 38.4 °F 12.0 °F 29% 30.26 in 10.0 mi East 5.8 mph - N/A   Clear
3:53 PM 43.0 °F 38.2 °F 12.0 °F 28% 30.26 in 10.0 mi ESE 8.1 mph - N/A   Clear
4:53 PM 43.0 °F 41.3 °F 12.0 °F 28% 30.25 in 10.0 mi SE 3.5 mph - N/A   Clear
5:53 PM 39.9 °F 35.1 °F 12.0 °F 32% 30.25 in 10.0 mi SE 6.9 mph - N/A   Clear
6:53 PM 35.1 °F 25.2 °F 19.9 °F 54% 30.32 in 10.0 mi South 16.1 mph - N/A   Clear
7:53 PM 32.0 °F 24.2 °F 19.9 °F 61% 30.33 in 10.0 mi South 9.2 mph - N/A   Clear
8:53 PM 30.0 °F 23.2 °F 19.9 °F 66% 30.32 in 10.0 mi SW 6.9 mph - N/A   Mostly Cloudy
10:53 PM 27.0 °F 21.6 °F 19.9 °F 75% 30.29 in 10.0 mi West 4.6 mph - N/A   Clear
11:53 PM 25.0 °F 18.1 °F 19.0 °F 78% 30.26 in 10.0 mi SW 5.8 mph - N/A   Clear